Flag for U.S.A. Weather past 2 weeks in Garland, Texas, U.S.A.

41 °F


Feels Like: 35 °F
Forecast: 41 / 44 °F
Wind: 10 mph from Northwest

Location: Mesquite Metro Airport

Current Time: Nov 28, 2015 at 11:57:00 PM

Latest Report: Nov 28, 2015 at 11:15 PM

Visibility: 10 mi

Pressure: 30.26 "Hg

Humidity: 93%

Dew point: 40 °F

Location of GarlandLocation

Historic Weather in Garland — Graph


Garland temperature yesterday

Maximum temperature yesterday: 69 °F (at 3:15 AM)
Minimum temperature yesterday: 39 °F (at 6:50 PM)
Average temperature yesterday: 52 °F

Past Weeks' High & Low Weather Summary

High73 °F (Nov 25, 2:50 PM)100% (Nov 16, 3:50 PM)30.39 "Hg (Nov 16, 3:50 PM)
Low30 °F (Nov 22, 6:50 AM)30% (Nov 22, 3:50 PM)29.48 "Hg (Nov 17, 4:15 AM)
Average54 °F78%30.09 "Hg
* Reported Nov 13 10:55 PM — Nov 28 10:35 PM, Garland, Weather by CustomWeather, © 2015

Note: Actual official high and low records may vary slightly from our data, if they occured in-between our weather recording intervals... More about our weather records


Garland weather history for previous 24 hours

Time TempWeatherWind HumidityBarometerVisibility
10:35 PM
Sat, Nov 28
41 °FOvercast.10 mph93%30.26 "Hg10 mi
9:55 PM41 °FOvercast.9 mph94%30.25 "Hg10 mi
9:15 PM41 °FOvercast.7 mph93%30.24 "Hg10 mi
8:55 PM41 °FOvercast.8 mph93%30.24 "Hg10 mi
8:35 PM41 °FOvercast.6 mph93%30.24 "Hg10 mi
8:15 PM41 °FOvercast.7 mph94%30.23 "Hg10 mi
7:55 PM41 °FOvercast.7 mph93%30.24 "Hg10 mi
7:35 PM41 °FOvercast.8 mph93%30.23 "Hg10 mi
7:15 PM41 °FOvercast.8 mph93%30.23 "Hg10 mi
6:50 PM39 °FOvercast.9 mph100%30.21 "Hg10 mi
4:50 PM39 °FMore clouds than sun.10 mph100%30.21 "Hg7 mi
3:50 PM41 °FMostly cloudy.10 mph93%30.21 "Hg10 mi
2:50 PM39 °FLow clouds.10 mph100%30.20 "Hg10 mi
1:50 PM39 °FFog.10 mph93%30.21 "Hg5 mi
12:50 PM39 °FFog.10 mph93%30.24 "Hg5 mi
11:50 AM39 °FFog.9 mph93%30.26 "Hg2 mi
10:50 AM39 °FFog.10 mph93%30.26 "Hg6 mi
9:50 AM37 °FFog.12 mph100%30.25 "Hg2 mi
8:50 AM37 °FFog.12 mph100%30.23 "Hg2 mi
7:50 AM37 °FFog.9 mph100%30.23 "Hg2 mi
6:50 AM37 °FFog.12 mph100%30.22 "Hg4 mi
5:15 AM38 °FMostly cloudy.10 mph97%30.21 "Hg7 mi
4:55 AM38 °FOvercast.10 mph97%30.20 "Hg5 mi
4:35 AM38 °FMostly cloudy.14 mph97%30.17 "Hg7 mi
3:55 AM38 °FOvercast.12 mph97%30.20 "Hg7 mi
3:35 AM38 °FMostly cloudy.10 mph97%30.20 "Hg5 mi
3:15 AM38 °FOvercast.12 mph97%30.20 "Hg7 mi
2:55 AM38 °FOvercast.10 mph97%30.21 "Hg5 mi
2:35 AM39 °FMostly cloudy.10 mph97%30.21 "Hg7 mi
2:15 AM39 °FMostly cloudy.15 mph97%30.21 "Hg10 mi
1:55 AM39 °FOvercast.9 mph97%30.21 "Hg10 mi
12:35 AM39 °FOvercast.12 mph98%30.22 "Hg4 mi
12:15 AM39 °FOvercast.9 mph98%30.23 "Hg4 mi
11:55 PM
Fri, Nov 27
39 °FOvercast.9 mph97%30.24 "Hg3 mi
11:15 PM40 °FMostly cloudy.17 mph97%30.24 "Hg4 mi
Weather by CustomWeather, © 2015

See weather overviewHow to use our weather pages